Starlink 30101

operational
NORAD ID: 56301 Int'l Des: 2023-056 Owner: SPXS Country: US Constellation: starlink
LEOCIRCULAR

Über Starlink 30101

Beschreibung wird geladen...

Live-Position

3D-Globus wird geladen...

Nächste Überflüge

Höhenverlauf

Altitude vs Time

uPlot chart will show altitude changes over time

Zweizeiliger Elementsatz

1 56301U 23056R 25304.72090191 -.00003112 00000-0 -21548-3 0 9996
2 56301 43.0037 191.0495 0001170 265.2902 94.7807 15.02526300140686
Epoch: 31. Okt. 2025 • Age: 16 hours

Aktueller Status

Höhe 564.5 km
Geschwindigkeit 7.58 km/s
Subsatellitenpunkt -24.07°S, 18.3°W
Startdatum 19. Apr. 2023
Alter 2.5 years
Typ internet

Technische Details

Klassifizierung Payload
Masse 730.00 kg
Trockenmasse 700.00 kg
Gesamtmasse 730.00 kg
Länge 0.30 m
Durchmesser 4.10 m
Spannweite 29.00 m
Form Box + pan
Hersteller SPXS
Bus-Typ Starlink V2M
Phasenstatus In Orbit
Besitzer/Staat SPXS/US

Große Konstellationen

Loading constellations...